Weather History for Sparta, IL

Change the Weather History Date:

Thursday, December 13, 2012

  Actual Average (KBLV) Record (KBLV)
Temperature  
Mean Temperature 38 °F -  
Max Temperature 51 °F 45 °F 69 °F (1948)
Min Temperature 26 °F 27 °F -1 °F (1962)
Degree Days  
Heating Degree Days 26    
Moisture  
Dew Point 25 °F    
Average Humidity 65    
Maximum Humidity 100    
Minimum Humidity 16    
Precipitation  
Precipitation 0.00 in - - ()
Sea Level Pressure  
Sea Level Pressure 30.29 in    
Wind  
Wind Speed 7 mph (SSE)    
Max Wind Speed 16 mph    
Max Gust Speed 22 mph    
Visibility 10 miles    
Events      
Averages and records for this station are not official NWS values.
T = Trace of Precipitation, MM = Missing Value Source: NWS Daily Summary

Daily Weather History Graph

Daily Weather History Graph

Search for Another Location

Airport:

Trip Planner

Search our weather history database for the weather conditions in past years. The results will help you decide how hot, cold, wet, or windy it might be!

Date:

Astronomy

Dec. 13, 2012 Rise Set
Actual Time 7:07 AM CST 4:39 PM CST
Civil Twilight 6:37 AM CST 5:09 PM CST
Nautical Twilight 6:04 AM CST 5:42 PM CST
Astronomical Twilight 5:32 AM CST 6:14 PM CST
Moon 7:15 AM CST (12/13) 5:21 PM CST (12/13)
Length of Visible Light 10h 31m
Length of Day
9h 32m
New Moon, 0% of the Moon is Illuminated
Dec 13
New Moon
Dec 19
First Quarter
Dec 28
Full
Jan 4
Last Quarter
Jan 11
New

Hourly Weather History & Observations

Time (CST) Temp. Windchill Dew Point Humidity Pressure Visibility Wind Dir Wind Speed Gust Speed Precip Events Conditions
12:15 AM 35.6 °F 29.9 °F 32.0 °F 87% 30.30 in 10.0 mi SSE 6.9 mph - N/A   Clear
12:35 AM 35.6 °F 30.7 °F 30.2 °F 81% 30.32 in 10.0 mi South 5.8 mph - N/A   Clear
12:55 AM 35.6 °F 32.8 °F 30.2 °F 81% 30.33 in 10.0 mi South 3.5 mph - N/A   Clear
1:15 AM 30.2 °F - 28.4 °F 93% 30.34 in 10.0 mi Calm Calm - N/A   Clear
1:35 AM 28.4 °F - 28.4 °F 100% 30.34 in 10.0 mi Calm Calm - N/A   Clear
1:55 AM 28.4 °F - 28.4 °F 100% 30.35 in 10.0 mi Calm Calm - N/A   Clear
2:15 AM 28.4 °F 24.6 °F 28.4 °F 100% 30.35 in 10.0 mi SE 3.5 mph - N/A   Clear
2:35 AM 26.6 °F - 26.6 °F 100% 30.35 in 10.0 mi Calm Calm - N/A   Clear
2:55 AM 28.4 °F 23.3 °F 28.4 °F 100% 30.35 in 10.0 mi SE 4.6 mph - N/A   Clear
3:15 AM 28.4 °F 23.3 °F 28.4 °F 100% 30.34 in 10.0 mi SE 4.6 mph - N/A   Clear
3:35 AM 30.2 °F 25.4 °F 30.2 °F 100% 30.34 in 10.0 mi SSE 4.6 mph - N/A   Clear
3:55 AM 28.4 °F 22.2 °F 28.4 °F 100% 30.33 in 10.0 mi SE 5.8 mph - N/A   Clear
4:15 AM 30.2 °F 24.3 °F 30.2 °F 100% 30.33 in 10.0 mi SE 5.8 mph - N/A   Clear
4:35 AM 30.2 °F 25.4 °F 30.2 °F 100% 30.33 in 10.0 mi SE 4.6 mph - N/A   Clear
4:55 AM 30.2 °F 25.4 °F 30.2 °F 100% 30.33 in 10.0 mi SE 4.6 mph - N/A   Clear
5:15 AM 30.2 °F 25.4 °F 30.2 °F 100% 30.34 in 10.0 mi SE 4.6 mph - N/A   Clear
5:35 AM 30.2 °F 24.3 °F 30.2 °F 100% 30.33 in 10.0 mi SSE 5.8 mph - N/A   Clear
5:55 AM 30.2 °F 25.4 °F 30.2 °F 100% 30.34 in 10.0 mi SE 4.6 mph - N/A   Clear
6:15 AM 30.2 °F 26.7 °F 30.2 °F 100% 30.35 in 10.0 mi SE 3.5 mph - N/A   Clear
6:35 AM 28.4 °F 23.3 °F 28.4 °F 100% 30.35 in 10.0 mi SE 4.6 mph - N/A   Clear
6:55 AM 28.4 °F 23.3 °F 28.4 °F 100% 30.35 in 10.0 mi SE 4.6 mph - N/A   Clear
7:15 AM 28.4 °F 24.6 °F 28.4 °F 100% 30.35 in 10.0 mi SE 3.5 mph - N/A   Clear
7:35 AM 30.2 °F 25.4 °F 30.2 °F 100% 30.35 in 10.0 mi SE 4.6 mph - N/A   Clear
7:55 AM 30.2 °F 24.3 °F 30.2 °F 100% 30.35 in 10.0 mi SSE 5.8 mph - N/A   Clear
8:15 AM 33.8 °F 27.7 °F 30.2 °F 87% 30.35 in 10.0 mi SSE 6.9 mph - N/A   Clear
8:35 AM 35.6 °F 29.2 °F 30.2 °F 81% 30.35 in 10.0 mi SSE 8.1 mph - N/A   Clear
8:55 AM 37.4 °F 31.4 °F 30.2 °F 75% 30.35 in 10.0 mi SSE 8.1 mph - N/A   Clear
9:15 AM 37.4 °F 31.4 °F 30.2 °F 75% 30.35 in 10.0 mi SSE 8.1 mph - N/A   Clear
9:35 AM 39.2 °F 33.0 °F 30.2 °F 70% 30.35 in 10.0 mi South 9.2 mph - N/A   Clear
9:55 AM 42.8 °F 37.5 °F 26.6 °F 53% 30.35 in 10.0 mi South 9.2 mph 18.4 mph N/A   Clear
10:15 AM 42.8 °F 35.8 °F 24.8 °F 49% 30.35 in 10.0 mi South 13.8 mph 17.3 mph N/A   Clear
10:35 AM 44.6 °F 37.4 °F 24.8 °F 46% 30.34 in 10.0 mi South 16.1 mph 20.7 mph N/A   Clear
10:55 AM 44.6 °F 38.1 °F 21.2 °F 39% 30.34 in 10.0 mi South 13.8 mph 19.6 mph N/A   Clear
11:15 AM 46.4 °F 40.1 °F 19.4 °F 34% 30.32 in 10.0 mi South 15.0 mph - N/A   Clear
11:35 AM 46.4 °F 41.5 °F 17.6 °F 32% 30.31 in 10.0 mi South 10.4 mph 19.6 mph N/A   Clear
11:55 AM 46.4 °F 40.7 °F 14.0 °F 27% 30.30 in 10.0 mi South 12.7 mph - N/A   Clear
12:15 PM 48.2 °F - 12.2 °F 24% 30.30 in 10.0 mi South 11.5 mph 19.6 mph N/A   Clear
12:35 PM 48.2 °F - 12.2 °F 24% 30.29 in 10.0 mi South 12.7 mph 21.9 mph N/A   Clear
12:55 PM 50.0 °F - 12.2 °F 22% 30.28 in 10.0 mi South 12.7 mph 16.1 mph N/A   Clear
1:15 PM 50.0 °F - 12.2 °F 22% 30.26 in 10.0 mi South 10.4 mph 16.1 mph N/A   Clear
1:35 PM 51.8 °F - 10.4 °F 19% 30.26 in 10.0 mi SSE 10.4 mph 17.3 mph N/A   Clear
1:55 PM 51.8 °F - 10.4 °F 19% 30.26 in 10.0 mi South 10.4 mph 17.3 mph N/A   Clear
2:15 PM 51.8 °F - 10.4 °F 19% 30.25 in 10.0 mi South 10.4 mph - N/A   Clear
2:35 PM 51.8 °F - 8.6 °F 18% 30.24 in 10.0 mi South 12.7 mph - N/A   Clear
2:55 PM 51.8 °F - 6.8 °F 16% 30.24 in 10.0 mi South 15.0 mph - N/A   Clear
3:15 PM 51.8 °F - 8.6 °F 18% 30.23 in 10.0 mi South 11.5 mph - N/A   Clear
3:35 PM 50.0 °F - 10.4 °F 20% 30.23 in 10.0 mi South 11.5 mph - N/A   Clear
3:55 PM 48.2 °F - 14.0 °F 25% 30.23 in 10.0 mi South 8.1 mph - N/A   Clear
4:15 PM 48.2 °F - 17.6 °F 30% 30.23 in 10.0 mi South 8.1 mph - N/A   Clear
4:35 PM 46.4 °F 42.4 °F 19.4 °F 34% 30.23 in 10.0 mi South 8.1 mph - N/A   Clear
5:15 PM 44.6 °F 39.7 °F 21.2 °F 39% 30.23 in 10.0 mi SSE 9.2 mph - N/A   Clear
5:55 PM 44.6 °F 41.4 °F 24.8 °F 46% 30.24 in 10.0 mi SSE 5.8 mph - N/A   Clear
6:15 PM 42.8 °F 38.6 °F 26.6 °F 53% 30.24 in 10.0 mi SSE 6.9 mph - N/A   Clear
6:35 PM 42.8 °F 38.6 °F 28.4 °F 57% 30.24 in 10.0 mi SSE 6.9 mph - N/A   Clear
6:55 PM 42.8 °F 37.0 °F 30.2 °F 61% 30.23 in 10.0 mi South 10.4 mph - N/A   Clear
7:15 PM 42.8 °F 37.5 °F 30.2 °F 61% 30.23 in 10.0 mi SSE 9.2 mph - N/A   Clear
7:35 PM 42.8 °F 37.5 °F 30.2 °F 61% 30.23 in 10.0 mi South 9.2 mph - N/A   Clear
7:55 PM 42.8 °F 36.6 °F 32.0 °F 66% 30.22 in 10.0 mi South 11.5 mph 16.1 mph N/A   Clear
8:15 PM 42.8 °F 36.6 °F 32.0 °F 66% 30.22 in 10.0 mi South 11.5 mph - N/A   Clear
8:35 PM 42.8 °F 38.0 °F 33.8 °F 70% 30.22 in 10.0 mi South 8.1 mph - N/A   Clear
8:55 PM 42.8 °F 37.0 °F 32.0 °F 66% 30.22 in 10.0 mi South 10.4 mph - N/A   Clear
9:15 PM 42.8 °F 37.0 °F 32.0 °F 66% 30.22 in 10.0 mi South 10.4 mph - N/A   Clear
9:35 PM 42.8 °F 37.5 °F 32.0 °F 66% 30.22 in 10.0 mi South 9.2 mph - N/A   Clear
9:55 PM 41.0 °F 35.8 °F 32.0 °F 70% 30.22 in 10.0 mi South 8.1 mph - N/A   Clear
10:15 PM 42.8 °F 38.6 °F 32.0 °F 66% 30.22 in 10.0 mi South 6.9 mph - N/A   Clear
10:35 PM 41.0 °F 35.8 °F 30.2 °F 65% 30.21 in 10.0 mi South 8.1 mph - N/A   Clear
10:55 PM 41.0 °F 35.2 °F 30.2 °F 65% 30.21 in 10.0 mi South 9.2 mph - N/A   Clear
11:15 PM 41.0 °F 35.8 °F 30.2 °F 65% 30.22 in 10.0 mi South 8.1 mph - N/A   Clear
11:35 PM 41.0 °F 35.8 °F 30.2 °F 65% 30.22 in 10.0 mi South 8.1 mph - N/A   Clear
11:55 PM 41.0 °F 37.1 °F 30.2 °F 65% 30.23 in 10.0 mi South 5.8 mph - N/A   Clear